Hourly Weather Roundup
Issued by NWS Central Illinois

Home | Current Version | Previous Version | Text Only | Print | Product List | Glossary On
Versions: 1 2 3 4 5 6 7 8 9 10 11 12 13 14 15 16 17 18 19 20 21 22 23 24 25 26 27 28 29 30 31 32 33 34 35 36 37 38 39 40 41 42 43 44 45 46 47 48 49 50
000
NZUS43 KILX 230110
HWRILX

AREA WEATHER ROUNDUP
NATIONAL WEATHER SERVICE, LINCOLN IL
800 PM CDT MON SEP 22 2014


CITY           SKY/WX    TMP DP  RH WIND       PRES   REMARKS
BLOOMINGTON    CLEAR     63  42  46 CALM      30.27R
CHAMPAIGN      CLEAR     54  47  77 CALM      30.26R
DECATUR        CLEAR     61  46  57 CALM      30.25R
FLORA          CLEAR     59  48  65 CALM      30.25R
GALESBURG      CLEAR    N/A N/A N/A CALM      30.24S
JACKSONVILLE   CLEAR     58  51  76 CALM      30.26R
LACON          CLEAR     52  48  86 CALM      30.24S
LAWRENCEVILLE  CLEAR     54  49  83 NE6       30.25R
LITCHFIELD     CLEAR     57  49  74 CALM      30.25R
$$


CITY           SKY/WX    TMP DP  RH WIND       PRES   REMARKS
LINCOLN        CLEAR     57  47  70 CALM      30.23R
MACOMB         CLEAR     54  49  81 S3        30.27R
MATTOON        CLEAR     56  49  77 CALM      30.25R
MT CARMEL AP   CLEAR     57  50  77 CALM      30.24R
OLNEY-NOBLE AP CLEAR     52  50  93 CALM      30.25R
PARIS          CLEAR     51  49  95 CALM      30.26R
PEORIA         CLEAR     58  50  75 CALM      30.25R
PONTIAC        CLEAR     54  48  82 CALM      30.25R
RANTOUL        CLEAR     61  45  56 CALM      30.26R
ROBINSON       CLEAR     55  50  82 CALM      30.25R
SPRINGFIELD    CLEAR     55  49  80 CALM      30.25R
TAYLORVILLE    CLEAR     55  50  82 CALM      30.25R
$$

...REGIONAL REPORTS...


CITY           SKY/WX    TMP DP  RH WIND       PRES   REMARKS
CHICAGO O`HARE CLEAR     59  44  57 SE9       30.24R
KANKAKEE       CLEAR     53  48  84 CALM      30.26R
MOLINE         CLEAR     55  48  77 CALM      30.24R
MOUNT VERNON   CLEAR     52  45  76 CALM      30.25R
PITTSFIELD     CLEAR     58  49  72 CALM      30.27R
QUINCY         CLEAR     66  45  46 E3        30.25R
ROCKFORD       PTCLDY    58  47  66 S3        30.25S
$$


CITY           SKY/WX    TMP DP  RH WIND       PRES   REMARKS
BURLINGTON     LGT RAIN  55  50  83 CALM      30.25R
CEDAR RAPIDS   CLEAR     56  51  84 S3        30.23R
DES MOINES     PTCLDY    66  51  58 S6        30.22R
KIRKSVILLE     CLEAR     56  52  86 CALM      30.26R
OTTUMWA        CLEAR     55  50  83 SE3       30.24R
ST LOUIS       PTCLDY    65  49  56 CALM      30.24R
$$


CITY           SKY/WX    TMP DP  RH WIND       PRES   REMARKS
TERRE HAUTE    CLEAR     52  48  86 CALM      30.25R
EVANSVILLE     CLEAR     60  49  66 CALM      30.24R
INDIANAPOLIS   CLEAR     59  43  55 N3        30.24R
LAFAYETTE      CLEAR     53  47  79 N6        30.25R
MADISON        CLEAR     57  50  77 CALM      30.21R
MILWAUKEE      CLEAR     63  46  54 W7        30.21R
$$




USA.gov is the U.S. government's official web portal to all federal, state and local government web resources and services.